Back to catalog

STARLINK-31284

AliveCommunicationsVLEO
NORAD 59246·PAYLOAD·🇺🇸 United States

Launched Mar 16, 2024 from Cape Canaveral Space Force Station

Loading…

Next Passes (next 24 hours)

TLE

FreshSource: CelesTrak SupGP

Epoch: Sep 14, 2026, 20:56 UTC

1 59246C 24049R   26257.87270833 -.00028788  00000+0 -10425-2 0  2570
2 59246  43.0013 154.9999 0001320 262.9649 351.6499 15.27597677    13

Track STARLINK-31284 in real time with AllMySat

Download on the App Store